This demonstration page uses our WeatherBlox Daily Observations layout. Learn more.

Hourly Observations for October 7, 2020

Temp ( °F °C ) Dew Point ( °F °C ) Humidity (%) Winds ( mph kmh ) Pressure ( in mb ) Visibility ( mi km ) Precip ( " mm )
12:53 am 00:53 Clear 49 9.4 29 -1.7 46 46 NW 3 6 29.93 1014 10 16.0934 0 0
1:53 am 01:53 Clear 50 10 28 -2.2 43 43 Calm 29.93 1014 10 16.0934 0 0
2:53 am 02:53 Clear 50 10 24 -4.4 36 36 undefined N/A 29.93 1013 10 16.0934 0 0
3:53 am 03:53 Clear 44 6.7 28 -2.2 53 53 W 8 13 29.95 1014 10 16.0934 0 0
4:53 am 04:53 Clear 51 10.6 23 -5 33 33 NW 12 19 29.95 1014 8 12.87472 0 0
5:53 am 05:53 Clear 48 8.9 25 -3.9 41 41 WNW 10 17 29.98 1015 10 16.0934 0 0
6:53 am 06:53 Clear 46 7.8 27 -2.8 47 47 NW 10 17 30.02 1017 9 14.48406 0 0
7:53 am 07:53 Sunny 52 11.1 27 -2.8 38 38 NW 10 17 30.05 1018 8 12.87472 0 0
8:53 am 08:53 Sunny 59 15 28 -2.2 31 31 NW 13 20 30.06 1018 8 12.87472 0 0
9:53 am 09:53 Sunny 66 18.9 29 -1.7 25 25 W 6 9 30.06 1018 10 16.0934 0 0
10:53 am 10:53 Sunny 73 22.8 32 0 22 22 W 6 9 30.06 1018 10 16.0934 0 0
11:53 am 11:53 Sunny 79 26.1 33 0.6 19 19 Calm 30.04 1017 10 16.0934 0 0
12:53 pm 12:53 Sunny 82 27.8 33 0.6 17 17 undefined N/A 30.01 1016 10 16.0934 0 0
1:53 pm 13:53 Sunny 83 28.3 33 0.6 17 17 ENE 7 11 29.99 1016 10 16.0934 0 0
2:53 pm 14:53 Sunny 82 27.8 34 1.1 18 18 E 9 15 29.98 1015 10 16.0934 0 0
3:53 pm 15:53 Sunny 82 27.8 34 1.1 18 18 ESE 13 20 29.98 1015 10 16.0934 0 0
4:53 pm 16:53 Sunny 80 26.7 36 2.2 20 20 ESE 13 20 29.96 1015 10 16.0934 0 0
5:53 pm 17:53 Sunny 75 23.9 37 2.8 25 25 E 10 17 29.98 1015 10 16.0934 0 0
6:53 pm 18:53 Clear 65 18.3 38 3.3 37 37 E 10 17 30.01 1016 10 16.0934 0 0
7:53 pm 19:53 Clear 64 17.8 38 3.3 38 38 ESE 10 17 30.01 1016 10 16.0934 0 0
8:53 pm 20:53 Clear 57 13.9 38 3.3 49 49 ESE 8 13 30.02 1017 10 16.0934 0 0
9:53 pm 21:53 Clear 55 12.8 38 3.3 53 53 ESE 6 9 30.02 1017 10 16.0934 0 0
10:53 pm 22:53 Clear 56 13.3 38 3.3 51 51 ESE 10 17 30 1016 10 16.0934 0 0
11:53 pm 23:53 Clear 56 13.3 39 3.9 53 53 ESE 13 20 29.98 1015 10 16.0934 0 0

Powered by AerisWeather